STARLINK-1638

decayed
NORAD ID: 46134 Int'l Des: 2020-057 Owner: SPXS Country: US Constellation: starlink
LEOCIRCULAR
グループ

STARLINK-1638について

説明を読み込み中...

高度履歴

Altitude vs Time

uPlot chart will show altitude changes over time

軌道要素

1 46134U 20057T 23333.65834697 .23154824 12201-4 38189-2 0 9994
2 46134 53.0255 358.7940 0005581 63.3554 39.2219 16.32603748182705
Epoch: Nov 29, 2023 • Age: 15749 hours

現在のステータス

Position data unavailable
打ち上げ日 Aug 18, 2020
運用期間 5 years
落下予定日 Nov 29, 2023
タイプ internet

技術仕様

分類 Payload
質量 260.00 kg
乾燥質量 248.00 kg
総質量 260.00 kg
長さ 0.20 m
直径 2.80 m
スパン 9.00 m
形状 Box + pan
製造者 SPXS
バスタイプ Starlink
フェーズステータス Reentered
所有者/国 SPXS/US

大規模コンステレーション

Loading constellations...